Flag for Hungary Weather past 2 weeks in Budapest, Hungary

Now
66 °F

Clear.


Feels Like: 66 °F
Forecast: 64 / 96 °F
Wind: No wind

Location: Ferenc Liszt International Airport

Current Time: Aug 30, 2015 at 2:21:46 AM

Latest Report: Aug 30, 2015 at 2:00 AM


Visibility: 10 mi

Pressure: 30.18 "Hg

Humidity: 88%

Dew point: 63 °F

Location of BudapestLocation

Historic Weather in Budapest — Graph

°F

Budapest temperature yesterday

Maximum temperature yesterday: 93 °F (at 1:30 PM)
Minimum temperature yesterday: 61 °F (at 3:30 AM)
Average temperature yesterday: 78 °F

Past Weeks' High & Low Weather Summary

 TemperatureHumidityPressure
High97 °F (Aug 15, 5:00 PM)100% (Aug 17, 7:30 PM)30.21 "Hg (Aug 17, 7:30 PM)
Low54 °F (Aug 24, 6:00 AM)22% (Aug 15, 3:30 PM)29.71 "Hg (Aug 15, 5:00 PM)
Average70 °F73%30.00 "Hg
* Reported Aug 15 1:00 AM — Aug 30 1:00 AM, Budapest, Weather by CustomWeather, © 2015

Note: Actual official high and low records may vary slightly from our data, if they occured in-between our weather recording intervals... More about our weather records

Advertising

Budapest weather history for previous 24 hours

 ConditionsComfort  
Time TempWeatherWind HumidityBarometerVisibility
1:00 AM
Sun, Aug 30
68 °FClear.2 mph83%30.18 "Hg10 mi
12:30 AM68 °FClear.2 mph83%30.18 "Hg10 mi
12:00 AM70 °FClear.1 mph83%30.18 "Hg10 mi
11:00 PM
Sat, Aug 29
70 °FClear.2 mph83%30.18 "Hg10 mi
10:30 PM72 °FClear.2 mph78%30.18 "Hg10 mi
10:00 PM72 °FClear.2 mph78%30.18 "Hg10 mi
9:30 PM73 °FClear.2 mph74%30.18 "Hg10 mi
9:00 PM75 °FClear.3 mph69%30.18 "Hg10 mi
8:30 PM75 °FClear.1 mph69%30.18 "Hg10 mi
8:00 PM79 °FSunny.1 mph61%30.15 "Hg10 mi
7:30 PM86 °FSunny.5 mph46%30.15 "Hg10 mi
7:00 PM88 °FSunny.5 mph43%30.15 "Hg10 mi
6:30 PM90 °FSunny.5 mph41%30.15 "Hg10 mi
6:00 PM91 °FPassing clouds.5 mph36%30.18 "HgN/A
5:30 PM93 °FPassing clouds.5 mph34%30.18 "HgN/A
5:00 PM93 °FPassing clouds.6 mph36%30.18 "HgN/A
4:30 PM93 °FPassing clouds.7 mph39%30.18 "HgN/A
4:00 PM93 °FPassing clouds.6 mph34%30.18 "HgN/A
3:30 PM93 °FPassing clouds.8 mph34%30.18 "HgN/A
3:00 PM93 °FPassing clouds.6 mph36%30.18 "HgN/A
2:30 PM93 °FPassing clouds.6 mph34%30.21 "HgN/A
2:00 PM93 °FPassing clouds.8 mph39%30.21 "HgN/A
1:30 PM93 °FSunny.6 mph34%30.21 "Hg10 mi
1:00 PM90 °FPassing clouds.8 mph38%30.21 "HgN/A
12:00 PM90 °FPassing clouds.7 mph38%30.21 "HgN/A
11:30 AM88 °FPassing clouds.7 mph43%30.21 "HgN/A
11:00 AM88 °FPassing clouds.6 mph43%30.21 "HgN/A
9:30 AM84 °FSunny.1 mph55%30.21 "Hg10 mi
9:00 AM84 °FSunny.No wind51%30.21 "Hg10 mi
8:00 AM75 °FSunny.No wind65%30.18 "Hg10 mi
7:30 AM68 °FSunny.2 mph78%30.18 "Hg10 mi
7:00 AM64 °FSunny.1 mph83%30.18 "Hg10 mi
6:00 AM61 °FClear.1 mph88%30.15 "Hg10 mi
5:00 AM61 °FClear.1 mph94%30.15 "Hg10 mi
4:30 AM61 °FClear.2 mph88%30.15 "Hg10 mi
4:00 AM61 °FClear.2 mph94%30.15 "Hg10 mi
3:30 AM61 °FClear.No wind94%30.15 "Hg10 mi
3:00 AM63 °FClear.No wind88%30.15 "Hg10 mi
2:30 AM63 °FClear.No wind88%30.15 "Hg10 mi
2:00 AM63 °FClear.1 mph88%30.15 "Hg10 mi
Weather by CustomWeather, © 2015

See weather overviewHow to use our weather pages